| time (UTC) | temp F | wind direction | speed knots | gust knots | rain 1hr in | rain 24hr in | rain mn in | humidity % | barometer mb |
| 20260502210551 | 49 | 339 | 1.7 | 2.6 | 0.00 | 0.00 | 0.00 | 51 | 1013.5 |
| 20260502210052 | 49 | 338 | 0.9 | 1.7 | 0.00 | 0.00 | 0.00 | 53 | 1013.6 |
| 20260502205551 | 49 | 269 | 1.7 | 3.5 | 0.00 | 0.00 | 0.00 | 52 | 1013.6 |
| 20260502205051 | 49 | 226 | 3.5 | 5.2 | 0.00 | 0.00 | 0.00 | 53 | 1013.7 |
| 20260502204552 | 49 | 287 | 1.7 | 3.5 | 0.00 | 0.00 | 0.00 | 54 | 1014.0 |
| 20260502204051 | 50 | 50 | 1.7 | 2.6 | 0.00 | 0.00 | 0.00 | 53 | 1013.8 |
| 20260502203551 | 50 | 280 | 2.6 | 4.3 | 0.00 | 0.00 | 0.00 | 51 | 1013.8 |
| 20260502203052 | 50 | 65 | 1.7 | 3.5 | 0.00 | 0.00 | 0.00 | 51 | 1013.8 |
| 20260502202551 | 50 | 232 | 1.7 | 2.6 | 0.00 | 0.00 | 0.00 | 49 | 1013.8 |
| 20260502202051 | 49 | 234 | 1.7 | 3.5 | 0.00 | 0.00 | 0.00 | 50 | 1014.0 |
| 20260502201552 | 49 | 50 | 2.6 | 5.2 | 0.00 | 0.00 | 0.00 | 51 | 1014.0 |
| 20260502201051 | 49 | 6 | 1.7 | 3.5 | 0.00 | 0.00 | 0.00 | 49 | 1014.1 |
| 20260502200551 | 49 | 91 | 0.9 | 2.6 | 0.00 | 0.00 | 0.00 | 51 | 1014.0 |
| 20260502200051 | 49 | 255 | 3.5 | 6.1 | 0.00 | 0.00 | 0.00 | 49 | 1014.1 |
| 20260502195551 | 49 | 325 | 3.5 | 5.2 | 0.00 | 0.00 | 0.00 | 50 | 1014.0 |
| 20260502195051 | 49 | 189 | 1.7 | 3.5 | 0.00 | 0.00 | 0.00 | 50 | 1014.1 |
| 20260502194551 | 49 | 302 | 1.7 | 2.6 | 0.00 | 0.00 | 0.00 | 51 | 1014.1 |
| 20260502194051 | 50 | 332 | 2.6 | 6.1 | 0.00 | 0.00 | 0.00 | 50 | 1014.0 |
| 20260502193552 | 51 | 286 | 2.6 | 5.2 | 0.00 | 0.00 | 0.00 | 51 | 1014.0 |
| 20260502193051 | 51 | 291 | 2.6 | 5.2 | 0.00 | 0.00 | 0.00 | 47 | 1014.1 |
| 20260502192551 | 50 | 310 | 3.5 | 7.0 | 0.00 | 0.00 | 0.00 | 47 | 1014.2 |
| 20260502192101 | 49 | 215 | 2.6 | 3.5 | 0.00 | 0.00 | 0.00 | 48 | 1014.1 |
| 20260502191551 | 50 | 333 | 1.7 | 2.6 | 0.00 | 0.00 | 0.00 | 49 | 1014.1 |
| 20260502191052 | 51 | 294 | 3.5 | 4.3 | 0.00 | 0.00 | 0.00 | 48 | 1014.1 |
| 20260502190551 | 50 | 330 | 1.7 | 3.5 | 0.00 | 0.00 | 0.00 | 50 | 1014.1 |
| 20260502190052 | 50 | 45 | 2.6 | 4.3 | 0.00 | 0.00 | 0.00 | 49 | 1014.1 |
| 20260502185552 | 50 | 248 | 3.5 | 7.0 | 0.00 | 0.00 | 0.00 | 48 | 1014.1 |
| 20260502185052 | 50 | 257 | 5.2 | 7.8 | 0.00 | 0.00 | 0.00 | 48 | 1014.2 |
| 20260502184552 | 51 | 240 | 2.6 | 3.5 | 0.00 | 0.00 | 0.00 | 48 | 1014.2 |
| 20260502184051 | 51 | 267 | 4.3 | 7.0 | 0.00 | 0.00 | 0.00 | 46 | 1014.2 |
| 20260502183552 | 51 | 256 | 2.6 | 4.3 | 0.00 | 0.00 | 0.00 | 47 | 1014.2 |
| 20260502183052 | 51 | 246 | 3.5 | 6.1 | 0.00 | 0.00 | 0.00 | 49 | 1014.2 |
| 20260502182551 | 50 | 310 | 1.7 | 2.6 | 0.00 | 0.00 | 0.00 | 49 | 1014.3 |
| 20260502182051 | 51 | 268 | 5.2 | 8.7 | 0.00 | 0.00 | 0.00 | 47 | 1014.3 |
| 20260502181552 | 51 | 270 | 3.5 | 6.1 | 0.00 | 0.00 | 0.00 | 46 | 1014.3 |
| 20260502180606 | 51 | 182 | 0.9 | 1.7 | 0.00 | 0.00 | 0.00 | 47 | 1014.2 |
| 20260502164051 | 53 | 353 | 2.6 | 3.5 | 0.00 | 0.00 | 0.00 | 46 | 1014.6 |
| 20260502163552 | 52 | 80 | 1.7 | 3.5 | 0.00 | 0.00 | 0.00 | 46 | 1014.7 |
| 20260502163051 | 53 | 355 | 2.6 | 4.3 | 0.00 | 0.00 | 0.00 | 47 | 1014.6 |
| 20260502162551 | 52 | 72 | 2.6 | 5.2 | 0.00 | 0.00 | 0.00 | 48 | 1014.7 |
| 20260502162051 | 52 | 169 | 1.7 | 3.5 | 0.00 | 0.00 | 0.00 | 44 | 1014.7 |
| 20260502161102 | 51 | 54 | 2.6 | 5.2 | 0.00 | 0.00 | 0.00 | 47 | 1014.9 |
| 20260502160551 | 51 | 318 | 2.6 | 4.3 | 0.00 | 0.00 | 0.00 | 46 | 1015.0 |
| 20260502152051 | 51 | 10 | 1.7 | 2.6 | 0.00 | 0.00 | 0.00 | 49 | 1015.0 |
| 20260502151551 | 51 | 43 | 1.7 | 3.5 | 0.00 | 0.00 | 0.00 | 48 | 1015.0 |
| 20260502151052 | 50 | 264 | 3.5 | 6.1 | 0.00 | 0.00 | 0.00 | 46 | 1015.0 |
| 20260502150554 | 49 | 305 | 1.7 | 2.6 | 0.00 | 0.00 | 0.00 | 51 | 1014.8 |
| 20260502130556 | 42 | 314 | 1.7 | 2.6 | 0.00 | 0.00 | 0.00 | 67 | 1015.1 |
| 20260502123552 | 40 | 348 | 0.0 | 0.9 | 0.00 | 0.00 | 0.00 | 72 | 1015.1 |
| 20260502123052 | 40 | 32 | 1.7 | 1.7 | 0.00 | 0.00 | 0.00 | 72 | 1015.0 |
| 20260502122551 | 40 | 10 | 0.9 | 1.7 | 0.00 | 0.00 | 0.00 | 72 | 1015.1 |
| 20260502122052 | 40 | 22 | 0.9 | 1.7 | 0.00 | 0.00 | 0.00 | 73 | 1015.1 |
| 20260502121551 | 40 | 76 | 0.0 | 0.9 | 0.00 | 0.00 | 0.00 | 73 | 1015.0 |
| 20260502121052 | 40 | 333 | 0.9 | 1.7 | 0.00 | 0.00 | 0.00 | 73 | 1015.1 |
| 20260502120552 | 39 | 302 | 0.0 | 0.9 | 0.00 | 0.00 | 0.00 | 73 | 1015.2 |
| 20260502115551 | 39 | 21 | 1.7 | 1.7 | 0.00 | 0.00 | 0.00 | 74 | 1015.1 |
| 20260502115051 | 38 | 0 | 0.0 | 0.0 | 0.00 | 0.00 | 0.00 | 75 | 1015.1 |
| 20260502114553 | 38 | 23 | 0.9 | 1.7 | 0.00 | 0.00 | 0.00 | 76 | 1015.0 |
| 20260502114051 | 37 | 0 | 0.0 | 0.0 | 0.00 | 0.00 | 0.00 | 80 | 1015.0 |
| 20260502113551 | 37 | 0 | 0.0 | 0.0 | 0.00 | 0.00 | 0.00 | 79 | 1015.0 |
| 20260502113051 | 36 | 0 | 0.0 | 0.0 | 0.00 | 0.00 | 0.00 | 80 | 1015.0 |
| 20260502112551 | 36 | 0 | 0.0 | 0.0 | 0.00 | 0.00 | 0.00 | 81 | 1015.0 |
| 20260502112055 | 36 | 0 | 0.0 | 0.0 | 0.00 | 0.00 | 0.00 | 80 | 1014.8 |
| 20260502111551 | 35 | 0 | 0.0 | 0.0 | 0.00 | 0.00 | 0.00 | 81 | 1014.7 |
| 20260502111051 | 35 | 0 | 0.0 | 0.0 | 0.00 | 0.00 | 0.00 | 82 | 1014.7 |
| 20260502110551 | 35 | 0 | 0.0 | 0.0 | 0.00 | 0.00 | 0.00 | 81 | 1014.7 |
| 20260502110053 | 35 | 0 | 0.0 | 0.0 | 0.00 | 0.00 | 0.00 | 80 | 1014.7 |
| 20260502105552 | 36 | 267 | 0.0 | 0.0 | 0.00 | 0.00 | 0.00 | 80 | 1014.7 |
| 20260502105052 | 36 | 0 | 0.0 | 0.0 | 0.00 | 0.00 | 0.00 | 80 | 1014.6 |
| 20260502104551 | 36 | 0 | 0.0 | 0.0 | 0.00 | 0.00 | 0.00 | 80 | 1014.6 |
| 20260502104051 | 36 | 0 | 0.0 | 0.0 | 0.00 | 0.00 | 0.00 | 79 | 1014.5 |
| 20260502103551 | 37 | 0 | 0.0 | 0.0 | 0.00 | 0.00 | 0.00 | 79 | 1014.6 |
| 20260502103052 | 37 | 188 | 0.0 | 0.0 | 0.00 | 0.00 | 0.00 | 78 | 1014.5 |
| 20260502102551 | 37 | 0 | 0.0 | 0.0 | 0.00 | 0.00 | 0.00 | 77 | 1014.5 |
| 20260502102051 | 37 | 0 | 0.0 | 0.0 | 0.00 | 0.00 | 0.00 | 77 | 1014.6 |
| 20260502101552 | 37 | 30 | 0.0 | 0.9 | 0.00 | 0.00 | 0.00 | 76 | 1014.7 |
| 20260502101051 | 37 | 0 | 0.0 | 0.0 | 0.00 | 0.00 | 0.00 | 76 | 1014.7 |
| 20260502100551 | 37 | 0 | 0.0 | 0.0 | 0.00 | 0.00 | 0.00 | 76 | 1014.7 |
| 20260502091053 | 40 | 357 | 0.9 | 0.9 | 0.00 | 0.00 | 0.00 | 68 | 1014.9 |
| 20260502090552 | 40 | 0 | 0.0 | 0.0 | 0.00 | 0.00 | 0.00 | 67 | 1014.8 |
| 20260502071051 | 43 | 93 | 0.0 | 0.9 | 0.00 | 0.00 | 0.00 | 66 | 1014.6 |
| 20260502070551 | 43 | 203 | 1.7 | 1.7 | 0.00 | 0.00 | 0.00 | 67 | 1014.6 |
| 20260502070052 | 43 | 168 | 0.9 | 3.5 | 0.00 | 0.00 | 0.00 | 72 | 1014.6 |
| 20260502065551 | 44 | 0 | 0.0 | 0.0 | 0.00 | 0.00 | 0.00 | 71 | 1014.7 |
| 20260502065053 | 44 | 121 | 0.0 | 0.9 | 0.00 | 0.00 | 0.00 | 71 | 1014.7 |
| 20260502064551 | 44 | 343 | 0.0 | 1.7 | 0.00 | 0.00 | 0.00 | 70 | 1014.8 |
| 20260502064052 | 44 | 13 | 0.0 | 0.9 | 0.00 | 0.00 | 0.00 | 70 | 1014.8 |
| 20260502063552 | 44 | 20 | 0.0 | 0.9 | 0.00 | 0.00 | 0.00 | 70 | 1014.9 |
| 20260502063052 | 44 | 336 | 0.9 | 1.7 | 0.00 | 0.00 | 0.00 | 69 | 1014.9 |
| 20260502062552 | 44 | 338 | 0.9 | 1.7 | 0.00 | 0.00 | 0.00 | 68 | 1015.0 |
| 20260502062051 | 44 | 190 | 0.9 | 1.7 | 0.00 | 0.00 | 0.00 | 68 | 1015.0 |
| 20260502061551 | 44 | 219 | 1.7 | 3.5 | 0.00 | 0.00 | 0.00 | 67 | 1015.0 |
| 20260502061051 | 44 | 317 | 0.0 | 1.7 | 0.00 | 0.00 | 0.00 | 68 | 1015.1 |
| 20260502060551 | 45 | 346 | 0.0 | 0.0 | 0.00 | 0.00 | 0.00 | 68 | 1015.1 |
| 20260502060051 | 45 | 71 | 0.0 | 0.9 | 0.00 | 0.00 | 0.00 | 70 | 1015.1 |
| 20260502055551 | 45 | 54 | 0.9 | 1.7 | 0.00 | 0.00 | 0.00 | 72 | 1015.1 |
| 20260502055051 | 45 | 64 | 0.9 | 1.7 | 0.00 | 0.00 | 0.00 | 75 | 1015.2 |
| 20260502054551 | 45 | 198 | 1.7 | 5.2 | 0.00 | 0.00 | 0.00 | 74 | 1015.2 |
| 20260502054051 | 46 | 66 | 0.0 | 0.9 | 0.00 | 0.00 | 0.00 | 75 | 1015.1 |
| 20260502053552 | 46 | 54 | 0.9 | 1.7 | 0.00 | 0.00 | 0.00 | 74 | 1015.0 |
| 20260502053052 | 46 | 0 | 0.0 | 0.0 | 0.00 | 0.00 | 0.00 | 74 | 1015.0 |
| 20260502052551 | 46 | 33 | 0.9 | 1.7 | 0.00 | 0.00 | 0.00 | 74 | 1015.0 |
| 20260502052051 | 46 | 355 | 0.9 | 1.7 | 0.00 | 0.00 | 0.00 | 73 | 1015.0 |
| 20260502051551 | 46 | 53 | 0.0 | 0.9 | 0.00 | 0.00 | 0.00 | 73 | 1015.0 |
| 20260502051052 | 46 | 3 | 0.9 | 1.7 | 0.00 | 0.00 | 0.00 | 73 | 1015.0 |
| 20260502050552 | 46 | 0 | 0.0 | 0.0 | 0.00 | 0.00 | 0.00 | 73 | 1015.0 |
| 20260502050052 | 46 | 25 | 0.9 | 1.7 | 0.00 | 0.00 | 0.00 | 73 | 1014.9 |
| 20260502045553 | 46 | 353 | 0.0 | 0.9 | 0.00 | 0.00 | 0.00 | 72 | 1015.0 |
| 20260502045052 | 46 | 61 | 0.0 | 0.9 | 0.00 | 0.00 | 0.00 | 72 | 1014.9 |
| 20260502044552 | 46 | 39 | 0.9 | 1.7 | 0.00 | 0.00 | 0.00 | 72 | 1015.0 |
| 20260502044051 | 46 | 101 | 0.9 | 1.7 | 0.00 | 0.00 | 0.00 | 72 | 1015.1 |
| 20260502043551 | 46 | 105 | 0.0 | 1.7 | 0.00 | 0.00 | 0.00 | 72 | 1015.2 |
| 20260502043052 | 46 | 344 | 0.0 | 1.7 | 0.00 | 0.00 | 0.00 | 72 | 1015.2 |
| 20260502042552 | 46 | 238 | 1.7 | 2.6 | 0.00 | 0.00 | 0.00 | 71 | 1015.2 |
| 20260502042052 | 46 | 171 | 0.0 | 0.0 | 0.00 | 0.00 | 0.00 | 71 | 1015.1 |
| 20260502041551 | 46 | 265 | 2.6 | 4.3 | 0.00 | 0.00 | 0.00 | 70 | 1015.1 |
| 20260502041052 | 47 | 233 | 1.7 | 2.6 | 0.00 | 0.00 | 0.00 | 70 | 1015.0 |
| 20260502040552 | 47 | 95 | 0.0 | 0.9 | 0.00 | 0.00 | 0.00 | 70 | 1015.1 |
| 20260502040051 | 47 | 155 | 0.9 | 1.7 | 0.00 | 0.00 | 0.00 | 69 | 1015.1 |
| 20260502035551 | 47 | 205 | 1.7 | 4.3 | 0.00 | 0.00 | 0.00 | 68 | 1015.0 |
| 20260502035052 | 47 | 41 | 0.9 | 1.7 | 0.00 | 0.00 | 0.00 | 69 | 1015.1 |
| 20260502034552 | 47 | 198 | 0.0 | 1.7 | 0.00 | 0.00 | 0.00 | 69 | 1015.1 |
| 20260502034051 | 47 | 331 | 2.6 | 3.5 | 0.00 | 0.00 | 0.00 | 69 | 1015.1 |
| 20260502033555 | 47 | 200 | 1.7 | 3.5 | 0.00 | 0.00 | 0.00 | 70 | 1015.1 |
| 20260502033051 | 48 | 127 | 0.0 | 0.9 | 0.00 | 0.00 | 0.00 | 71 | 1015.2 |
| 20260502032551 | 48 | 0 | 0.0 | 0.9 | 0.00 | 0.00 | 0.00 | 70 | 1015.4 |
| 20260502032052 | 48 | 224 | 1.7 | 4.3 | 0.00 | 0.00 | 0.00 | 70 | 1015.4 |
| 20260502031551 | 48 | 242 | 1.7 | 3.5 | 0.00 | 0.00 | 0.00 | 70 | 1015.2 |
| 20260502031051 | 48 | 199 | 0.9 | 2.6 | 0.00 | 0.00 | 0.00 | 70 | 1015.1 |
| 20260502030551 | 48 | 109 | 0.0 | 1.7 | 0.00 | 0.00 | 0.00 | 70 | 1015.2 |
| 20260502030051 | 49 | 298 | 0.0 | 0.9 | 0.00 | 0.00 | 0.00 | 69 | 1015.2 |
| 20260502025551 | 49 | 77 | 0.9 | 2.6 | 0.00 | 0.00 | 0.00 | 69 | 1015.2 |
| 20260502025052 | 49 | 302 | 0.0 | 0.9 | 0.00 | 0.00 | 0.00 | 70 | 1015.1 |
| 20260502024551 | 49 | 329 | 0.0 | 0.9 | 0.00 | 0.00 | 0.00 | 70 | 1015.0 |
| 20260502024054 | 49 | 60 | 0.0 | 0.9 | 0.00 | 0.00 | 0.00 | 71 | 1014.9 |
| 20260502023552 | 49 | 262 | 1.7 | 1.7 | 0.00 | 0.00 | 0.00 | 70 | 1014.9 |
| 20260502023051 | 49 | 313 | 1.7 | 3.5 | 0.00 | 0.00 | 0.00 | 70 | 1014.9 |
| 20260502022552 | 49 | 178 | 1.7 | 2.6 | 0.00 | 0.00 | 0.00 | 70 | 1014.7 |
| 20260502022052 | 49 | 346 | 1.7 | 2.6 | 0.00 | 0.00 | 0.00 | 70 | 1014.6 |
| 20260502021551 | 49 | 240 | 0.9 | 1.7 | 0.00 | 0.00 | 0.00 | 69 | 1014.7 |
| 20260502021054 | 49 | 273 | 1.7 | 3.5 | 0.00 | 0.00 | 0.00 | 69 | 1014.6 |
| 20260502020551 | 49 | 265 | 1.7 | 2.6 | 0.00 | 0.00 | 0.00 | 70 | 1014.5 |
| 20260502020055 | 49 | 218 | 0.9 | 1.7 | 0.00 | 0.00 | 0.00 | 69 | 1014.5 |
| 20260502015551 | 49 | 33 | 0.9 | 1.7 | 0.00 | 0.00 | 0.00 | 72 | 1014.4 |
| 20260502015053 | 49 | 40 | 0.0 | 0.9 | 0.00 | 0.00 | 0.00 | 73 | 1014.2 |
| 20260502014551 | 49 | 226 | 0.0 | 0.9 | 0.00 | 0.00 | 0.00 | 72 | 1014.0 |
| 20260502014052 | 50 | 0 | 0.0 | 0.0 | 0.00 | 0.00 | 0.00 | 73 | 1013.8 |
| 20260502013551 | 50 | 135 | 0.9 | 1.7 | 0.00 | 0.00 | 0.00 | 72 | 1013.7 |
| 20260502013051 | 50 | 143 | 0.0 | 0.9 | 0.00 | 0.00 | 0.00 | 72 | 1013.8 |
| 20260502012551 | 50 | 92 | 0.0 | 0.9 | 0.00 | 0.00 | 0.00 | 71 | 1014.0 |
| 20260502012052 | 50 | 247 | 1.7 | 2.6 | 0.00 | 0.00 | 0.00 | 72 | 1014.0 |
| 20260502011552 | 50 | 32 | 0.9 | 1.7 | 0.00 | 0.00 | 0.00 | 71 | 1013.8 |
| 20260502011051 | 51 | 307 | 0.0 | 1.7 | 0.00 | 0.00 | 0.00 | 70 | 1013.7 |
| 20260502010551 | 51 | 3 | 0.9 | 1.7 | 0.00 | 0.00 | 0.00 | 69 | 1013.6 |
| 20260502010051 | 51 | 67 | 0.9 | 1.7 | 0.00 | 0.00 | 0.00 | 68 | 1013.5 |
| 20260502005552 | 52 | 58 | 1.7 | 2.6 | 0.00 | 0.00 | 0.00 | 67 | 1013.4 |
| 20260502005051 | 52 | 63 | 0.9 | 1.7 | 0.00 | 0.00 | 0.00 | 66 | 1013.2 |
| 20260502004551 | 52 | 51 | 0.0 | 1.7 | 0.00 | 0.00 | 0.00 | 65 | 1013.1 |
| 20260502004053 | 53 | 41 | 0.0 | 1.7 | 0.00 | 0.00 | 0.00 | 63 | 1012.9 |
| 20260502003552 | 54 | 6 | 1.7 | 3.5 | 0.00 | 0.00 | 0.00 | 62 | 1012.7 |
| 20260502003052 | 55 | 318 | 0.0 | 1.7 | 0.00 | 0.00 | 0.00 | 59 | 1012.5 |
| 20260502002551 | 55 | 25 | 0.9 | 1.7 | 0.00 | 0.00 | 0.00 | 56 | 1012.4 |
| 20260502002051 | 56 | 117 | 1.7 | 1.7 | 0.00 | 0.00 | 0.00 | 55 | 1012.2 |
| 20260502001552 | 56 | 49 | 1.7 | 3.5 | 0.00 | 0.00 | 0.00 | 53 | 1012.0 |
| 20260502001052 | 56 | 255 | 3.5 | 6.1 | 0.00 | 0.00 | 0.00 | 52 | 1012.0 |
| 20260502000551 | 57 | 13 | 0.0 | 1.7 | 0.00 | 0.00 | 0.00 | 51 | 1011.9 |
| 20260502000051 | 57 | 244 | 3.5 | 5.2 | 0.00 | 0.00 | 0.00 | 50 | 1011.8 |
| 20260501235551 | 57 | 207 | 0.9 | 2.6 | 0.00 | 0.00 | 0.00 | 51 | 1011.6 |
| 20260501235052 | 58 | 353 | 2.6 | 3.5 | 0.00 | 0.00 | 0.00 | 50 | 1011.7 |
| 20260501234551 | 58 | 23 | 1.7 | 3.5 | 0.00 | 0.00 | 0.00 | 49 | 1011.6 |
| 20260501234051 | 58 | 245 | 1.7 | 3.5 | 0.00 | 0.00 | 0.00 | 47 | 1011.4 |
| 20260501233551 | 59 | 240 | 2.6 | 5.2 | 0.00 | 0.00 | 0.00 | 47 | 1011.2 |
| 20260501233051 | 59 | 292 | 0.0 | 1.7 | 0.00 | 0.00 | 0.00 | 46 | 1011.1 |
| 20260501232551 | 60 | 295 | 0.9 | 2.6 | 0.00 | 0.00 | 0.00 | 46 | 1011.1 |
| 20260501232051 | 60 | 259 | 5.2 | 7.8 | 0.00 | 0.00 | 0.00 | 43 | 1011.1 |
| 20260501231551 | 60 | 230 | 1.7 | 3.5 | 0.00 | 0.00 | 0.00 | 44 | 1011.1 |
| 20260501231052 | 60 | 332 | 3.5 | 6.1 | 0.00 | 0.00 | 0.00 | 44 | 1011.1 |
| 20260501230551 | 60 | 246 | 2.6 | 3.5 | 0.00 | 0.00 | 0.00 | 43 | 1011.0 |
| 20260501230052 | 61 | 304 | 3.5 | 5.2 | 0.00 | 0.00 | 0.00 | 43 | 1011.1 |
| 20260501225551 | 61 | 326 | 1.7 | 3.5 | 0.00 | 0.00 | 0.00 | 43 | 1011.1 |
| 20260501225051 | 61 | 212 | 1.7 | 3.5 | 0.00 | 0.00 | 0.00 | 42 | 1011.2 |
| 20260501224551 | 61 | 281 | 2.6 | 3.5 | 0.00 | 0.00 | 0.00 | 43 | 1011.2 |
| 20260501224051 | 60 | 324 | 4.3 | 6.1 | 0.00 | 0.00 | 0.00 | 43 | 1011.4 |
| 20260501223551 | 60 | 268 | 3.5 | 5.2 | 0.00 | 0.00 | 0.00 | 42 | 1011.2 |
| 20260501223051 | 61 | 229 | 6.1 | 9.6 | 0.00 | 0.00 | 0.00 | 42 | 1011.1 |
| 20260501222551 | 61 | 249 | 1.7 | 3.5 | 0.00 | 0.00 | 0.00 | 41 | 1011.2 |
| 20260501222052 | 61 | 284 | 3.5 | 6.1 | 0.00 | 0.00 | 0.00 | 41 | 1011.4 |
| 20260501221551 | 61 | 258 | 4.3 | 6.1 | 0.00 | 0.00 | 0.00 | 40 | 1011.4 |
| 20260501221051 | 61 | 245 | 2.6 | 3.5 | 0.00 | 0.00 | 0.00 | 40 | 1011.5 |
| 20260501220551 | 62 | 275 | 4.3 | 5.2 | 0.00 | 0.00 | 0.00 | 40 | 1011.4 |
| 20260501220051 | 62 | 241 | 1.7 | 2.6 | 0.00 | 0.00 | 0.00 | 41 | 1011.4 |
| 20260501215551 | 63 | 280 | 3.5 | 5.2 | 0.00 | 0.00 | 0.00 | 39 | 1011.5 |
| 20260501215053 | 63 | 268 | 3.5 | 5.2 | 0.00 | 0.00 | 0.00 | 40 | 1011.5 |
| 20260501214551 | 63 | 273 | 3.5 | 6.1 | 0.00 | 0.00 | 0.00 | 38 | 1011.5 |
| 20260501214051 | 64 | 259 | 7.0 | 11.3 | 0.00 | 0.00 | 0.00 | 37 | 1011.4 |
| 20260501213551 | 64 | 10 | 2.6 | 5.2 | 0.00 | 0.00 | 0.00 | 39 | 1011.5 |
| 20260501213052 | 64 | 325 | 1.7 | 3.5 | 0.00 | 0.00 | 0.00 | 40 | 1011.5 |
| 20260501212551 | 65 | 269 | 4.3 | 6.1 | 0.00 | 0.00 | 0.00 | 39 | 1011.5 |
| 20260501212051 | 64 | 241 | 0.9 | 2.6 | 0.00 | 0.00 | 0.00 | 39 | 1011.4 |
| 20260501211552 | 64 | 329 | 3.5 | 5.2 | 0.00 | 0.00 | 0.00 | 39 | 1011.5 |
| 20260501211052 | 64 | 211 | 0.9 | 1.7 | 0.00 | 0.00 | 0.00 | 40 | 1011.4 |